カタログに戻る

ONEWEB-0592

運用中通信PO
NORAD 54658·PAYLOAD·🇬🇧 United Kingdom

打ち上げ Dec 8, 2022 から Cape Canaveral Space Force Station

Loading…

次のパス (今後24時間)

TLE

最新Source: CelesTrak SupGP

元期: Sep 14, 2026, 11:54 UTC

1 54658C 22166S   26257.49635833 -.00002321  00000+0 -56266-2 0  2571
2 54658  87.9280 226.1916 0002114  83.5473 338.9343 13.21826176    10

AllMySatでONEWEB-0592をリアルタイム追跡

Download on the App Store